Wind_Speed
43 43 44 44 44 44 45 45 46 45 46 46 47 47 47 47 47 47 46 46 45 45 45 45 45 44 43 43 42 41 40 39 39 38 38 38 37 36 36 35 35 36 36 35 34 34 33 32 32 32 31 31
42 43 44 44 45 45 46 46 46 47 47 47 48 48 49 49 49 49 48 48 48 48 47 47 47 46 46 46 45 44 43 42 42 41 41 41 40 39 39 38 38 39 39 38 37 36 36 35 35 35 34 34
42 43 44 45 45 46 46 47 48 48 48 49 49 50 50 51 51 51 51 51 50 50 50 49 49 49 49 48 48 47 46 46 45 45 44 44 43 43 42 41 42 43 43 42 40 40 39 39 39 38 37 37
42 43 44 45 45 46 47 48 49 49 50 50 50 51 52 52 53 53 53 53 53 52 52 52 52 51 51 51 51 50 50 49 49 48 48 47 47 46 46 45 46 46 46 46 44 43 43 43 42 42 41 41
44 44 44 45 46 46 47 48 49 50 50 50 51 51 52 53 54 55 55 56 56 56 55 54 54 54 54 54 53 53 53 53 52 52 51 51 50 50 49 48 49 50 50 49 48 47 47 47 46 46 45 44
47 46 46 46 47 47 48 48 49 50 50 51 51 51 52 52 53 54 56 57 57 58 58 57 57 57 56 56 56 56 56 55 55 54 54 53 53 53 52 51 51 53 52 52 52 51 51 51 50 50 49 48
51 50 49 48 49 49 49 49 50 50 51 51 51 52 52 52 53 54 55 56 57 58 59 59 59 59 59 59 58 58 58 58 57 57 56 56 55 55 54 54 54 55 54 54 55 55 54 54 54 53 53 52
51 51 51 51 50 50 51 51 51 52 52 53 52 52 52 52 53 54 55 56 57 57 58 59 59 60 61 61 61 60 60 60 60 59 59 58 58 58 57 56 57 57 56 56 56 57 56 56 57 56 56 56
49 50 51 52 52 52 52 52 52 53 53 54 54 54 53 53 53 54 55 56 57 57 58 59 59 60 61 62 62 62 62 62 62 61 61 61 61 60 60 60 60 59 59 59 58 58 58 58 59 58 58 58
48 48 49 50 52 53 53 53 53 53 53 54 55 56 56 55 55 55 55 56 57 57 58 59 59 60 61 62 62 63 63 63 63 64 63 63 63 62 62 62 62 62 62 61 61 61 60 60 61 60 60 60
49 49 49 49 50 52 53 54 54 54 54 54 55 56 57 57 57 57 57 58 58 58 58 59 59 60 61 62 63 63 63 64 64 64 64 65 64 64 64 64 64 64 64 64 64 63 63 63 63 62 62 62
51 51 51 51 51 51 52 53 54 55 55 54 55 55 56 57 57 57 58 59 60 60 59 59 59 59 59 60 62 62 63 64 65 65 65 66 66 65 66 66 66 66 65 65 66 66 65 65 65 65 64 64
54 53 53 53 53 53 54 54 55 56 56 56 56 56 56 57 57 57 58 58 59 61 61 59 60 60 60 60 61 61 61 62 64 64 65 66 66 67 67 67 67 67 67 67 67 67 67 67 66 66 65 65
56 56 56 55 55 55 55 56 56 57 57 58 58 58 58 58 58 58 57 57 57 60 62 61 61 61 61 61 61 61 61 61 62 63 64 64 65 67 67 68 68 68 68 68 67 67 68 67 67 67 66 66
59 59 59 59 58 58 58 57 58 58 59 60 60 60 60 60 60 59 59 59 58 59 61 61 62 63 62 62 62 62 62 61 61 62 63 63 64 65 66 68 68 68 68 68 68 67 67 67 67 67 67 67
62 62 62 62 62 62 61 61 60 60 61 62 62 62 63 63 63 62 61 61 61 60 61 61 60 62 63 63 63 63 63 62 62 63 64 64 64 63 64 65 66 67 67 67 67 67 67 67 67 67 67 66
64 64 64 64 64 65 65 65 64 63 63 63 64 65 65 66 66 66 65 64 63 63 63 63 61 60 62 63 64 64 64 64 64 63 63 64 64 63 63 63 63 64 64 65 65 65 65 65 65 65 65 65
65 66 66 67 66 67 67 67 67 66 65 65 66 67 67 68 68 69 68 67 66 66 66 66 65 62 61 63 63 64 64 65 66 66 64 64 64 63 62 62 62 62 62 62 62 62 62 62 62 62 63 63
66 66 67 68 69 69 69 69 69 69 68 68 67 68 69 69 70 70 71 71 70 70 70 69 69 66 63 63 64 63 64 65 66 67 67 66 65 63 61 61 62 62 61 60 60 60 60 59 60 60 60 61
69 69 69 70 70 71 71 71 71 71 71 70 70 69 70 71 71 72 72 73 73 73 73 72 72 70 66 65 65 64 64 65 65 67 68 68 67 65 62 61 62 62 61 60 59 58 58 58 58 59 60 60
73 72 72 73 73 73 73 74 73 74 73 73 73 72 72 72 73 73 74 75 75 75 74 74 75 74 72 69 67 66 66 65 65 65 66 67 67 66 64 62 62 62 60 59 58 57 56 57 58 59 60 60
76 76 75 75 75 75 76 76 76 76 76 76 76 76 75 74 74 74 75 75 76 76 76 76 76 77 76 74 71 69 68 67 66 66 66 66 66 66 64 63 61 61 60 58 58 58 57 56 58 59 60 61
78 78 78 78 77 77 77 78 79 79 78 78 79 79 78 77 77 77 77 77 77 77 77 76 77 77 78 78 76 73 70 69 68 67 67 66 66 65 64 62 61 61 61 60 60 59 57 57 58 59 60 60
81 81 81 81 81 80 79 79 80 81 81 81 81 81 80 80 79 78 78 78 78 78 78 78 77 77 77 78 79 77 74 72 71 70 69 68 67 66 65 63 62 62 62 62 61 60 59 58 59 59 58 58
85 84 84 84 83 83 83 82 82 82 82 83 84 83 83 82 82 81 79 79 80 80 79 79 78 77 77 77 79 79 78 75 73 72 71 70 69 68 68 66 64 63 64 64 63 61 60 61 61 59 57 56
88 88 88 87 86 86 86 85 85 85 84 85 85 85 85 85 84 84 83 81 80 80 81 80 80 78 77 77 77 79 79 77 76 74 74 73 72 71 70 68 67 66 66 65 64 62 63 64 63 60 58 57
90 90 90 90 90 90 89 88 87 87 86 86 86 86 86 86 86 86 86 85 83 82 81 81 81 80 78 78 78 78 79 79 78 76 75 75 74 73 72 71 70 69 67 66 65 65 66 65 64 63 60 58
93 93 93 93 93 94 93 92 90 89 88 88 89 89 89 89 88 88 87 88 88 86 84 84 84 83 81 80 80 79 79 79 79 78 77 76 75 75 74 73 72 71 68 67 67 67 66 67 68 66 61 58
97 97 96 96 96 96 96 97 95 94 92 91 90 91 92 92 91 91 90 90 90 90 89 88 87 86 85 83 82 82 80 80 81 80 79 78 77 76 75 74 74 73 71 69 68 68 68 69 70 67 63 63
95 96 96 96 96 97 97 97 97 97 97 96 94 93 94 94 94 94 94 93 92 92 92 91 89 88 88 87 85 84 83 82 82 82 81 80 79 78 77 75 75 75 73 71 70 69 69 70 71 69 68 68
86 87 89 90 92 93 94 95 96 96 97 98 98 97 96 96 96 96 96 96 96 95 94 93 93 91 90 90 88 87 86 84 83 83 82 82 82 81 79 78 78 76 74 73 72 70 70 71 73 73 72 71
Wind_Direction
267 266 265 263 261 259 258 257 256 254 252 250 249 248 247 246 245 244 243 243 243 242 242 242 242 242 243 244 244 245 245 246 246 247 247 247 247 247 248 248 249 250 249 250 250 249 249 249 248 247 247 246
268 265 264 263 262 260 259 258 256 256 254 253 252 251 250 248 247 246 245 245 244 244 244 244 244 244 244 244 245 245 246 246 247 248 248 249 249 249 249 249 250 250 250 250 249 250 250 250 250 249 248 248
269 267 265 264 262 261 260 259 257 256 255 254 253 252 251 250 249 248 247 246 246 246 246 246 245 245 245 245 245 245 246 246 247 247 248 249 250 250 250 250 251 252 252 251 250 250 250 250 250 250 249 249
270 268 266 265 263 262 260 259 258 257 257 256 255 254 252 251 250 249 249 248 247 247 246 246 246 246 245 245 245 245 245 245 246 246 247 248 249 250 250 251 251 252 253 253 252 251 251 251 251 251 250 250
270 269 268 266 265 263 262 261 260 259 258 258 258 257 255 254 251 250 249 248 248 247 246 246 246 246 245 245 245 245 245 245 245 245 246 246 247 248 249 250 251 251 252 254 254 253 253 252 252 252 251 251
271 269 268 267 266 265 264 263 262 261 260 259 259 258 258 257 256 254 251 249 248 247 247 246 246 246 245 245 245 245 245 245 245 244 245 245 246 247 248 248 249 250 251 252 253 254 254 253 253 253 252 252
271 269 268 267 266 266 265 264 263 263 262 260 260 259 257 257 257 257 256 255 253 251 249 247 247 246 246 245 245 245 245 245 245 244 244 245 245 246 246 247 247 248 250 251 252 253 253 253 253 253 253 253
271 270 269 267 266 265 265 264 264 263 263 262 261 260 259 257 257 256 256 256 256 256 255 252 250 248 247 246 245 245 245 245 245 245 245 245 245 245 246 246 247 247 248 249 250 251 252 252 253 253 253 253
272 271 270 269 267 265 264 264 263 263 263 263 262 261 260 259 258 257 255 254 254 255 256 256 255 254 251 249 247 246 246 246 245 245 245 245 245 246 246 246 247 247 248 249 249 250 251 252 252 252 253 253
273 272 271 270 269 268 266 265 263 263 262 262 262 262 261 260 259 259 258 256 254 254 254 254 254 255 255 254 252 249 248 248 247 246 246 246 246 246 246 246 247 248 248 249 249 250 251 251 252 252 252 253
273 273 272 271 271 270 269 268 266 264 263 262 262 262 262 261 260 259 258 258 256 255 255 254 253 254 254 254 254 252 251 250 249 249 248 247 247 247 247 247 247 248 248 249 249 250 250 251 251 252 252 252
273 272 272 271 271 271 270 270 269 268 266 264 263 262 262 262 261 260 259 259 258 256 256 256 255 255 254 254 254 253 253 252 251 250 250 249 248 248 248 248 248 248 249 249 250 250 250 251 251 252 252 252
273 272 272 271 271 270 270 269 269 269 268 267 265 264 263 263 262 261 260 259 259 258 256 256 255 254 255 254 254 254 254 254 253 253 252 251 250 250 249 249 249 249 250 250 251 251 251 251 252 252 252 252
273 272 272 271 270 269 269 269 268 268 268 267 267 266 265 264 263 262 261 260 259 258 257 256 256 254 254 254 254 254 254 255 255 254 254 255 254 253 252 252 251 251 251 252 252 252 252 252 252 253 253 253
273 272 271 271 270 269 268 268 268 268 267 267 266 266 265 264 263 262 262 261 260 259 257 257 257 256 255 254 254 253 253 254 254 254 253 254 256 256 256 255 254 254 254 254 254 254 255 255 255 254 255 255
273 272 271 270 270 269 268 267 266 266 266 266 266 266 265 265 264 263 261 261 261 260 259 257 257 257 256 255 254 253 253 253 254 253 252 252 253 256 257 257 257 257 257 257 257 256 256 257 256 256 256 256
272 271 271 270 269 268 267 266 265 264 264 264 265 265 265 264 264 263 262 261 260 260 259 258 256 256 256 256 255 254 253 252 252 253 252 252 252 254 255 256 256 257 257 258 258 258 258 258 258 257 257 257
269 269 269 268 268 267 266 265 264 263 262 262 262 262 263 263 263 263 262 261 260 260 259 258 257 255 255 256 255 255 254 252 252 251 251 251 251 252 254 254 255 255 256 257 258 259 258 258 258 258 258 257
267 266 266 266 266 266 265 265 264 262 261 260 259 259 260 260 261 261 262 261 260 260 259 258 257 255 255 255 255 254 254 253 252 251 251 250 250 251 253 254 254 254 255 256 257 258 258 258 258 258 258 257
266 265 264 263 263 263 263 263 263 262 261 259 257 256 257 257 258 258 259 260 259 259 259 258 258 256 254 254 255 254 253 253 252 252 252 251 249 249 251 253 253 253 254 255 256 257 257 257 257 257 257 256
268 266 265 263 262 261 261 261 261 261 261 260 258 255 254 255 255 256 256 257 258 258 258 258 258 257 255 253 253 254 253 253 252 252 252 252 251 249 249 251 252 252 253 255 256 256 256 256 256 255 255 255
270 268 266 264 262 261 259 259 258 258 258 258 258 256 254 253 253 253 254 255 255 256 256 256 256 256 256 254 253 253 253 253 252 252 252 252 251 250 249 249 251 253 253 255 255 254 254 254 255 255 254 254
270 268 267 265 263 261 259 258 257 256 256 256 256 256 255 254 252 252 252 252 253 254 254 254 254 255 255 255 253 252 252 252 252 252 252 252 251 251 250 249 250 252 252 253 254 253 252 253 254 254 254 254
269 268 266 264 263 261 260 258 257 255 254 254 254 254 254 254 253 251 251 251 251 252 252 252 252 253 253 254 254 252 251 251 252 252 251 251 251 250 249 249 249 250 251 252 253 253 252 252 252 253 254 255
271 269 267 265 263 261 260 258 257 256 254 253 252 252 252 253 252 251 250 250 251 251 251 251 251 251 252 253 254 253 251 251 251 252 252 251 250 249 248 248 248 249 250 251 252 253 253 253 253 253 254 255
273 272 270 268 266 263 260 258 257 256 254 253 252 251 251 251 251 251 251 250 250 250 251 251 250 250 250 251 252 252 251 250 250 251 252 251 250 249 248 248 248 248 249 250 252 253 253 254 253 252 253 254
274 273 272 271 269 266 263 260 257 255 254 253 252 251 250 250 249 250 251 250 249 249 249 250 250 249 249 250 250 251 252 251 251 251 252 252 251 250 249 248 247 247 248 249 250 251 252 254 254 252 252 253
272 271 270 270 269 268 266 262 258 255 252 251 251 251 250 250 250 249 249 250 250 249 248 248 249 248 248 249 249 250 250 250 251 252 252 253 253 252 251 249 248 248 248 248 249 251 252 254 254 253 252 254
272 271 269 268 267 266 265 263 261 257 253 250 250 250 251 250 250 250 249 249 249 249 248 247 247 247 247 246 247 248 248 248 249 250 251 252 253 253 252 251 250 249 248 248 249 250 251 253 254 254 253 255
274 272 270 269 267 265 263 262 261 259 256 253 250 249 249 250 249 249 249 248 248 248 248 248 247 247 247 246 245 245 246 246 246 247 248 249 251 252 252 252 251 250 249 248 249 249 250 253 254 254 253 254
275 273 272 270 268 266 264 262 261 259 257 255 252 250 248 248 248 248 247 247 247 247 247 247 247 246 246 247 246 244 244 244 245 245 246 247 248 249 250 251 251 251 251 250 249 250 250 251 253 253 253 253
Height
5710 5710 5710 5710 5711 5711 5712 5713 5714 5714 5715 5716 5716 5717 5717 5718 5719 5720 5721 5722 5723 5724 5724 5725 5726 5727 5728 5729 5730 5731 5732 5733 5734 5735 5736 5737 5738 5740 5741 5743 5744 5745 5746 5747 5749 5751 5752 5753 5755 5756 5758 5759
5705 5704 5704 5704 5704 5705 5706 5707 5708 5709 5709 5710 5710 5711 5712 5713 5714 5715 5716 5717 5718 5718 5719 5720 5721 5722 5723 5724 5725 5726 5727 5728 5730 5730 5732 5733 5734 5735 5737 5739 5740 5740 5742 5744 5746 5747 5748 5750 5751 5752 5754 5755
5699 5699 5698 5698 5698 5698 5699 5700 5701 5702 5703 5704 5704 5705 5706 5707 5708 5709 5710 5711 5712 5713 5714 5714 5715 5716 5717 5718 5719 5721 5722 5723 5725 5726 5727 5728 5729 5731 5733 5735 5735 5736 5737 5739 5742 5744 5744 5746 5747 5748 5750 5751
5694 5693 5693 5692 5692 5692 5693 5693 5694 5695 5696 5697 5698 5699 5699 5700 5701 5702 5703 5704 5705 5706 5707 5708 5709 5710 5711 5713 5714 5715 5717 5718 5719 5721 5722 5723 5725 5726 5728 5730 5731 5731 5732 5734 5737 5739 5740 5742 5743 5744 5745 5747
5689 5688 5687 5687 5687 5687 5687 5687 5687 5688 5689 5689 5690 5691 5693 5694 5695 5696 5697 5698 5698 5699 5700 5701 5702 5704 5705 5706 5708 5709 5711 5712 5713 5715 5716 5718 5719 5721 5722 5725 5726 5725 5727 5729 5731 5734 5735 5737 5738 5740 5741 5743
5683 5683 5682 5681 5681 5681 5681 5681 5681 5681 5682 5682 5683 5684 5685 5686 5687 5688 5690 5691 5692 5692 5693 5695 5696 5697 5699 5700 5701 5703 5704 5705 5707 5709 5710 5712 5714 5715 5716 5720 5720 5719 5722 5724 5725 5727 5729 5731 5733 5735 5736 5738
5677 5677 5676 5676 5676 5676 5675 5675 5675 5675 5675 5675 5676 5677 5678 5679 5680 5681 5682 5684 5685 5685 5687 5688 5689 5690 5691 5693 5695 5696 5697 5699 5700 5702 5704 5705 5707 5708 5711 5713 5713 5714 5716 5717 5719 5721 5723 5725 5726 5729 5730 5732
5671 5670 5670 5670 5669 5669 5669 5669 5669 5669 5668 5669 5669 5670 5671 5672 5673 5673 5675 5676 5677 5679 5680 5682 5683 5683 5684 5685 5688 5689 5689 5692 5693 5695 5697 5698 5700 5702 5705 5706 5706 5708 5710 5711 5713 5714 5716 5718 5720 5722 5724 5726
5666 5665 5664 5664 5663 5663 5662 5662 5662 5662 5662 5662 5662 5663 5664 5665 5665 5666 5668 5669 5670 5671 5672 5674 5676 5677 5678 5678 5681 5682 5683 5684 5686 5688 5689 5691 5693 5695 5697 5698 5699 5702 5703 5705 5707 5708 5710 5712 5713 5715 5717 5719
5660 5660 5659 5658 5657 5656 5656 5655 5655 5655 5655 5655 5655 5655 5656 5657 5658 5659 5660 5661 5663 5664 5664 5666 5667 5668 5670 5671 5673 5676 5676 5677 5679 5681 5683 5684 5686 5688 5690 5691 5693 5695 5696 5698 5700 5702 5704 5705 5706 5709 5711 5712
5654 5654 5653 5652 5651 5650 5650 5649 5649 5649 5649 5648 5648 5648 5648 5649 5651 5652 5653 5654 5655 5657 5657 5657 5659 5660 5661 5663 5665 5668 5670 5671 5672 5674 5675 5677 5679 5681 5682 5684 5687 5688 5689 5691 5693 5695 5697 5698 5700 5702 5704 5706
5648 5647 5647 5646 5645 5645 5644 5643 5642 5642 5642 5642 5641 5641 5641 5641 5643 5644 5645 5646 5647 5649 5650 5650 5651 5652 5653 5655 5656 5659 5662 5664 5665 5667 5668 5670 5672 5674 5675 5676 5679 5681 5682 5684 5686 5688 5690 5691 5693 5695 5697 5699
5641 5640 5640 5639 5639 5638 5637 5637 5636 5635 5635 5635 5634 5634 5634 5634 5635 5635 5637 5638 5639 5640 5642 5642 5643 5645 5646 5647 5648 5650 5653 5655 5657 5659 5660 5662 5664 5666 5667 5669 5671 5673 5675 5676 5678 5681 5683 5684 5686 5688 5690 5692
5634 5633 5632 5632 5631 5631 5630 5630 5629 5628 5628 5628 5628 5628 5628 5628 5627 5628 5629 5630 5631 5631 5633 5634 5634 5637 5638 5638 5640 5642 5644 5646 5647 5650 5652 5654 5656 5657 5659 5661 5663 5665 5668 5669 5671 5673 5674 5676 5678 5681 5682 5684
5627 5626 5625 5624 5623 5623 5622 5622 5622 5622 5621 5621 5621 5621 5621 5621 5621 5621 5622 5621 5622 5623 5625 5627 5627 5629 5630 5631 5632 5633 5635 5636 5637 5640 5643 5646 5648 5649 5651 5653 5656 5658 5660 5662 5663 5665 5667 5668 5671 5673 5675 5676
5617 5617 5616 5615 5615 5614 5613 5614 5614 5614 5613 5613 5612 5613 5613 5613 5613 5614 5615 5614 5614 5614 5615 5618 5620 5621 5622 5623 5624 5625 5627 5627 5628 5630 5633 5637 5639 5641 5643 5645 5648 5650 5652 5654 5656 5658 5659 5660 5663 5665 5667 5669
5607 5606 5606 5605 5605 5605 5604 5604 5604 5605 5605 5604 5604 5604 5604 5604 5605 5606 5607 5608 5607 5606 5606 5608 5611 5614 5615 5616 5617 5617 5618 5619 5620 5622 5624 5628 5631 5632 5634 5637 5640 5641 5643 5645 5647 5649 5651 5653 5655 5657 5659 5660
5598 5596 5595 5594 5594 5594 5594 5594 5593 5594 5595 5595 5595 5594 5595 5595 5596 5596 5598 5600 5600 5599 5599 5599 5601 5605 5607 5608 5609 5609 5610 5611 5612 5613 5615 5619 5622 5624 5626 5628 5631 5633 5635 5636 5638 5640 5642 5644 5646 5648 5650 5652
5588 5587 5585 5584 5583 5583 5582 5583 5583 5583 5584 5585 5585 5584 5585 5585 5586 5587 5588 5590 5591 5590 5591 5591 5592 5596 5599 5600 5600 5601 5602 5603 5604 5605 5607 5610 5614 5616 5618 5619 5622 5624 5626 5628 5630 5631 5633 5635 5637 5639 5642 5643
5578 5577 5575 5574 5573 5572 5572 5571 5571 5572 5572 5573 5574 5574 5574 5575 5575 5576 5577 5579 5581 5582 5582 5583 5584 5586 5589 5591 5591 5593 5594 5595 5596 5598 5599 5601 5605 5608 5610 5611 5613 5616 5617 5619 5622 5623 5625 5627 5629 5631 5633 5635
5566 5566 5565 5563 5562 5562 5561 5560 5560 5560 5561 5561 5562 5563 5564 5564 5565 5566 5567 5567 5569 5571 5573 5575 5576 5577 5579 5581 5582 5584 5585 5587 5589 5590 5591 5593 5596 5599 5602 5603 5604 5607 5609 5611 5613 5615 5617 5618 5620 5622 5624 5626
5554 5554 5553 5552 5551 5551 5550 5549 5549 5549 5550 5550 5550 5551 5553 5554 5555 5555 5556 5556 5558 5560 5563 5565 5566 5568 5569 5571 5573 5575 5576 5578 5580 5582 5583 5585 5588 5590 5593 5595 5596 5599 5601 5602 5604 5606 5608 5610 5611 5613 5615 5617
5541 5540 5540 5539 5539 5539 5539 5538 5537 5537 5538 5538 5537 5538 5541 5542 5543 5544 5545 5546 5547 5548 5551 5554 5556 5558 5559 5560 5563 5566 5567 5569 5571 5573 5575 5577 5579 5582 5583 5586 5588 5590 5592 5593 5595 5598 5600 5602 5603 5604 5606 5609
5526 5526 5526 5526 5526 5526 5526 5526 5525 5525 5525 5525 5525 5526 5529 5530 5530 5532 5533 5535 5536 5537 5539 5542 5545 5548 5549 5550 5551 5555 5558 5561 5563 5564 5566 5568 5570 5573 5574 5577 5580 5581 5583 5585 5586 5589 5592 5594 5595 5597 5599 5601
5510 5510 5510 5511 5511 5512 5512 5513 5513 5513 5513 5513 5513 5514 5516 5517 5518 5519 5522 5524 5525 5526 5528 5530 5534 5537 5539 5540 5540 5543 5548 5551 5553 5554 5556 5558 5560 5563 5565 5568 5571 5573 5574 5576 5578 5581 5584 5586 5587 5589 5592 5594
5493 5493 5493 5494 5495 5496 5497 5498 5499 5500 5501 5501 5501 5501 5502 5503 5505 5507 5509 5512 5514 5516 5517 5519 5522 5525 5528 5531 5531 5532 5536 5540 5542 5544 5546 5548 5550 5553 5557 5559 5562 5563 5565 5568 5572 5575 5575 5576 5579 5582 5584 5587
5476 5475 5475 5476 5477 5478 5480 5483 5484 5486 5488 5488 5488 5488 5488 5489 5491 5495 5497 5499 5502 5504 5507 5509 5511 5514 5518 5521 5522 5522 5525 5529 5531 5534 5537 5538 5541 5544 5546 5549 5551 5553 5557 5561 5563 5564 5565 5569 5572 5573 5577 5581
5459 5458 5459 5459 5459 5459 5460 5464 5467 5470 5473 5474 5474 5474 5476 5476 5478 5481 5484 5486 5489 5492 5495 5498 5500 5504 5507 5510 5511 5512 5515 5518 5521 5524 5527 5529 5532 5534 5536 5540 5542 5545 5549 5551 5552 5555 5558 5561 5561 5564 5572 5576
5440 5440 5441 5442 5441 5441 5442 5443 5447 5452 5455 5458 5460 5460 5461 5463 5465 5467 5470 5473 5475 5479 5482 5485 5489 5492 5495 5499 5501 5503 5505 5508 5512 5514 5517 5520 5522 5524 5527 5531 5533 5535 5538 5541 5544 5548 5550 5551 5552 5559 5566 5566
5421 5420 5421 5422 5421 5422 5423 5425 5428 5431 5434 5438 5443 5445 5446 5448 5451 5453 5456 5459 5461 5464 5468 5472 5476 5480 5483 5487 5490 5492 5494 5498 5502 5505 5508 5511 5513 5515 5518 5521 5522 5524 5529 5532 5535 5538 5541 5543 5546 5551 5553 5553
5403 5402 5402 5403 5402 5403 5404 5406 5409 5412 5414 5418 5423 5427 5430 5432 5434 5437 5441 5444 5446 5449 5454 5459 5463 5468 5471 5475 5478 5480 5483 5487 5491 5494 5499 5503 5504 5506 5509 5510 5510 5515 5521 5522 5524 5530 5534 5536 5536 5538 5541 5545